Content
SEND FEEDBACK

Daily
Averages
Monthly
Summary
United States of America

CAMPBELL, MISSOURI


Home > North America > United States > Missouri
Elevation: 310 feet     Latitude: 36 29N     Longitude: 090 04W

WEATHER
 
SELECT A DAY
Number of Records: 211,124;   Date Range: 1/1/95 - 10/29/14
 
SHARE

PRINT THIS DATA

[ ← Previous Day ]
WEATHER ALMANAC - FEBRUARY 1, 2013
[ Next Day → ]
[ °C ]   °F
Weather ElementAverageHighLow
Temperature23.2 °F28.9 °F (3:53 pm)15.1 °F (6:53 am)
Dewpoint9 °F19 °F (10:53 pm)3 °F (6:53 am)
Humidity55 %69 % (10:53 pm)41 % (12:53 pm)
Barometer30.46 in30.59 in (9:53 am)30.33 in (11:53 pm)
Wind Speed5.2 mph11.5 mph (2:53 am)
Wind Gust17.3 mph (1:53 am)
Weather ElementAverage
Visibility10 mi
Wind DirectionSSW (203.6 °)

Weather ElementTotal
Precipitation---
Heating Degree Days43 (Base 65)
Averaged from 22 records on February 1, 2013
WEATHER CONDITIONS BREAKOUT
WIND DIRECTION BREAKOUT
WEATHER BY HOUR - FEBRUARY 1, 2013
[ °C ]   °F
Local TimeTemperatureDewpointHumidityBarometerVisibilityWind DirectionWind SpeedGust SpeedPrecipitationEventsConditions
1:53 AM19.9 °F5.0 °F52 %30.43 in10.0 miNNW (330°)9.2 mph17.3 mphClear
2:53 AM19.0 °F5.0 °F54 %30.43 in10.0 miNW (320°)11.5 mphClear
3:53 AM18.0 °F5.0 °F57 %30.47 in10.0 miNNW (340°)6.9 mphClear
4:53 AM17.1 °F5.0 °F59 %30.49 in10.0 miNNW (330°)8.1 mphClear
5:53 AM16.0 °F3.9 °F59 %30.51 in10.0 miNW (320°)6.9 mphClear
6:53 AM15.1 °F3.0 °F59 %30.53 in10.0 miNW (320°)4.6 mphClear
7:53 AM16.0 °F3.0 °F57 %30.55 in10.0 miNNW (330°)4.6 mphClear
8:53 AM18.0 °F3.0 °F52 %30.58 in10.0 miWNW (290°)5.8 mphClear
9:53 AM19.0 °F3.9 °F52 %30.59 in10.0 miCalmClear
10:53 AM21.0 °F3.9 °F48 %30.58 in10.0 miCalmClear
11:53 AM23.0 °F5.0 °F46 %30.55 in10.0 miSouth (190°)3.5 mphClear
12:53 PM26.1 °F5.0 °F41 %30.50 in10.0 miCalmClear
2:53 PM28.0 °F8.1 °F43 %30.45 in10.0 miSW (220°)4.6 mphClear
3:53 PM28.9 °F10.0 °F45 %30.44 in10.0 miSouth (180°)5.8 mphClear
4:53 PM28.9 °F12.0 °F49 %30.44 in10.0 miSouth (170°)5.8 mphClear
5:53 PM28.0 °F15.1 °F58 %30.41 in10.0 miSSE (150°)4.6 mphClear
6:53 PM28.9 °F14.0 °F54 %30.40 in10.0 miSSE (160°)5.8 mphClear
7:53 PM28.0 °F16.0 °F61 %30.38 in10.0 miSouth (170°)5.8 mphClear
8:53 PM28.0 °F17.1 °F63 %30.37 in10.0 miSSE (160°)6.9 mphClear
9:53 PM28.0 °F18.0 °F66 %30.36 in10.0 miSouth (170°)4.6 mphClear
10:53 PM28.0 °F19.0 °F69 %30.35 in10.0 miSSE (160°)3.5 mphClear
11:53 PM28.0 °F18.0 °F66 %30.33 in10.0 miSouth (170°)5.8 mphMostly Cloudy
Hourly data recorded from KPOF, located miles away from Campbell, Missouri







STORIES FROM OUR PARTNERS